Location: Voyageurs National Park
(48.5020°N, 92.9292°W)
Time: 02:18:56
(UTC-06:00)

Cosmos 1626 - Pass Details

Date: 19 January 2018
Orbit: 496 x 497 km, 82.5° (Epoch: 23 February)

Event Time Altitude Azimuth Distance (km) Brightness Sun altitude
Exits shadow 07:03:05 11° 307° (NW) 1,671 4.2 -8.6°
Maximum altitude 07:05:02 15° 275° (W) 1,435 3.8 -8.3°
Drops below altitude 10° 07:07:09 10° 240° (WSW) 1,701 4.5 -8.0°
Sets 07:09:59 0° 216° (SW) 2,577 5.6 -7.6°
